Temperature
16 16 15 16 16 16 16 16 16 16 16 16 16 16 16 16 16 16 16 16 16 16 16 16 16 16 16 15 15 15 15 15 15 15 15 15 15 15 15 15 15 15 15
16 15 15 15 15 16 16 16 16 16 16 16 16 16 16 16 16 16 16 16 16 15 15 15 15 15 15 15 15 15 15 15 15 15 15 15 15 15 15 15 15 15 15
16 15 15 15 15 15 16 16 16 16 16 16 16 16 16 16 16 16 16 16 15 15 15 15 15 15 15 15 15 15 15 15 15 15 15 15 15 14 14 14 14 14 14
15 15 15 15 15 15 15 16 16 16 16 16 16 16 16 16 16 15 15 15 15 15 15 15 15 15 15 15 15 15 15 15 15 14 15 15 14 14 14 14 14 14 14
15 15 15 15 15 15 15 15 15 15 16 16 16 15 15 15 15 15 15 15 15 15 15 15 15 15 15 15 15 14 14 14 14 14 14 14 14 14 14 14 14 14 14
14 14 15 15 15 15 15 15 15 15 15 15 15 15 15 15 15 15 15 15 15 15 15 15 15 15 15 15 14 14 14 14 14 14 14 14 14 14 14 14 14 14 14
14 14 14 14 15 15 15 15 15 15 15 15 15 15 15 15 15 15 15 15 15 15 15 15 14 14 14 14 14 14 14 14 14 14 14 14 14 14 14 14 14 14 14
14 14 14 14 14 14 14 15 15 15 15 15 15 15 15 15 15 15 14 14 14 14 14 14 14 14 14 14 14 14 14 14 14 14 14 14 14 14 14 14 14 14 14
13 13 13 14 14 14 14 14 14 14 14 14 14 14 14 14 14 14 14 14 14 14 14 14 14 14 14 14 14 14 14 14 13 13 13 13 13 13 13 13 13 13 13
13 13 13 13 13 14 14 14 14 14 14 14 14 14 14 14 14 14 14 14 14 14 14 14 14 14 14 14 14 13 13 13 13 13 13 13 13 13 13 13 13 13 13
12 12 13 13 13 13 13 13 13 13 13 13 14 14 14 14 14 14 14 14 14 14 14 14 14 14 14 13 13 13 13 13 13 13 13 13 13 13 13 12 13 13 12
12 12 12 12 13 13 13 13 13 13 13 13 13 13 13 13 13 13 14 14 14 13 13 13 13 13 13 13 13 13 13 13 13 13 13 12 12 12 12 12 12 12 12
12 12 12 12 12 12 13 13 13 12 12 12 13 13 13 13 13 13 13 13 13 13 13 13 13 13 13 13 13 13 13 13 13 12 12 12 12 12 12 12 12 12 12
12 12 12 12 12 12 12 12 12 12 12 12 12 12 13 13 13 13 13 13 13 13 13 13 13 13 12 12 12 12 12 12 12 12 12 12 12 11 11 11 11 11 11
11 11 11 11 12 12 12 12 12 12 12 12 12 12 12 12 12 12 12 12 12 12 12 12 12 12 12 12 12 12 12 12 12 12 12 11 11 11 11 11 11 11 11
11 11 11 11 11 11 11 11 11 11 11 11 12 12 12 12 12 12 12 12 12 12 12 12 12 12 12 12 12 11 11 11 11 11 11 11 11 11 11 11 11 10 10
11 11 11 11 11 11 11 11 11 11 11 11 11 11 11 11 11 12 12 12 12 12 12 12 12 12 11 11 11 11 11 11 11 11 11 10 10 10 10 10 10 10 10
10 10 10 10 10 11 11 11 11 11 11 11 11 11 11 11 11 11 11 11 11 11 11 11 11 11 11 11 11 11 10 10 10 10 10 10 10 10 10 10 10 10 9
10 10 10 10 10 10 10 10 10 10 10 10 10 10 11 11 11 11 11 11 11 11 11 11 11 11 11 10 10 10 10 10 10 9 9 9 9 9 9 9 9 9 9
10 10 10 10 10 10 10 10 9 10 10 10 10 10 10 10 10 10 10 10 10 10 10 10 10 10 10 10 10 9 9 9 9 9 9 9 9 9 9 9 8 8 8
10 10 10 10 10 9 9 9 9 9 9 9 10 10 10 10 10 10 10 10 10 10 10 10 10 10 10 9 9 9 9 9 9 9 9 8 8 8 8 8 8 8 8
10 10 9 9 9 9 9 9 9 9 9 9 9 9 9 9 9 10 10 10 10 10 9 9 9 9 9 9 9 8 8 8 8 8 8 8 8 8 8 8 8 8 7
10 9 9 9 9 9 8 9 9 9 9 9 9 9 9 9 9 9 9 9 9 9 9 9 9 9 9 8 8 8 7 7 7 7 8 8 7 7 7 7 7 7 7
9 9 9 9 9 8 8 8 8 8 8 8 8 8 8 8 9 9 9 9 9 9 8 8 8 8 8 8 8 7 7 7 6 6 7 7 7 7 7 7 7 7 6
9 9 9 8 8 8 8 8 8 8 8 8 8 8 8 8 8 8 8 8 8 8 8 8 7 7 7 7 7 7 7 7 6 6 6 6 6 6 6 6 6 6 6
8 8 8 8 8 8 8 8 7 7 7 7 8 8 7 7 7 7 7 7 7 7 7 7 7 7 7 7 7 6 6 6 6 6 5 5 6 6 6 6 6 6 5
Wind_Speed
2 3 7 9 10 10 10 10 11 11 11 11 11 11 11 11 11 10 10 9 9 9 8 9 9 9 9 9 10 10 10 10 10 10 10 9 8 8 8 8 7 7 7
3 4 8 9 9 10 10 10 10 11 11 11 11 11 11 10 10 10 9 9 9 8 8 8 8 8 8 9 9 9 9 9 9 9 9 8 7 6 7 6 6 6 6
4 5 8 8 9 9 9 9 10 10 10 10 10 10 10 10 10 9 9 9 8 8 8 8 8 8 8 8 8 8 8 8 8 7 7 6 5 5 5 5 5 5 4
4 5 7 9 9 9 9 9 9 9 10 10 10 10 10 9 9 9 9 8 8 8 7 7 7 7 7 7 7 7 7 7 6 6 5 4 3 3 4 4 4 4 4
4 5 7 9 9 9 9 9 9 9 9 9 9 9 9 9 9 8 8 8 7 7 7 6 6 6 6 6 6 6 5 5 6 5 4 4 3 3 3 4 4 4 4
3 5 6 7 8 8 8 8 9 9 9 9 9 8 8 8 8 8 7 7 7 7 6 6 6 6 6 6 5 5 5 5 5 5 4 4 3 3 3 4 5 4 5
3 4 6 6 7 7 7 8 8 8 8 8 8 8 7 7 7 7 6 6 6 6 6 6 6 6 6 5 5 5 5 5 6 4 3 3 3 3 3 3 4 4 3
3 3 5 6 6 6 6 7 7 7 8 7 7 7 7 6 6 6 6 6 5 6 5 5 5 5 5 5 5 5 6 6 5 4 3 3 3 3 3 3 3 3 3
3 3 3 4 5 6 5 6 7 7 8 7 7 7 7 7 7 6 6 5 5 5 5 5 5 5 5 5 5 6 6 6 5 4 3 3 3 3 3 3 3 3 3
2 2 2 3 4 5 5 6 7 6 6 7 7 7 7 7 7 7 6 5 5 5 5 5 5 5 5 6 6 6 6 6 5 4 3 3 3 3 4 4 4 4 4
2 2 2 2 3 4 4 5 6 6 5 5 6 7 8 7 7 7 7 7 6 5 5 5 5 5 6 6 6 6 5 5 4 4 3 3 3 3 4 4 4 5 5
3 2 2 2 2 3 3 4 4 5 4 4 4 6 6 6 6 6 6 7 7 7 6 5 5 6 6 6 6 6 5 5 4 4 3 3 3 3 4 4 4 4 4
4 3 2 1 2 2 3 3 3 4 5 4 4 5 6 6 5 5 5 5 6 6 6 6 6 6 6 6 5 5 5 5 4 3 4 4 3 3 4 4 4 4 4
3 3 2 2 1 2 3 3 3 3 4 3 3 4 5 4 3 3 3 4 4 4 5 5 5 5 5 5 5 4 4 4 4 3 4 4 4 4 4 5 5 5 5
4 3 3 2 2 3 3 2 3 2 3 4 3 3 4 4 3 3 3 3 4 4 4 4 4 4 4 4 4 4 4 4 4 4 4 6 6 5 5 6 6 6 6
5 4 3 3 3 4 3 2 2 2 3 4 3 3 4 4 4 3 3 2 3 3 3 3 3 3 2 3 3 4 4 4 4 5 5 5 6 6 5 5 6 6 6
5 4 4 4 2 3 4 3 3 3 3 3 3 4 4 4 5 4 3 2 2 3 4 4 4 4 3 3 2 2 3 4 4 4 5 5 5 6 6 6 6 6 6
4 3 4 3 2 3 3 3 2 2 3 3 3 4 4 4 5 4 3 2 2 3 3 2 2 2 2 2 1 1 2 3 3 4 5 5 5 5 6 6 6 6 6
4 4 4 3 4 3 4 4 3 3 2 2 3 3 4 4 4 4 3 2 3 3 2 1 2 1 2 2 2 2 2 2 2 3 4 4 5 5 5 5 6 6 6
3 3 3 3 3 4 4 4 3 3 2 2 3 3 3 4 4 4 3 3 3 3 2 2 2 2 1 1 2 2 2 2 2 2 2 3 4 4 4 4 4 4 5
3 3 3 4 3 3 3 3 2 2 2 1 1 3 3 3 4 4 2 2 3 2 2 2 2 2 2 1 2 2 2 2 2 1 1 2 3 4 4 3 3 3 4
4 4 4 3 3 3 2 2 2 2 2 2 2 3 3 3 3 3 3 2 2 3 3 2 2 1 1 2 2 1 1 2 2 1 0 0 1 2 3 3 2 2 3
3 4 4 4 3 3 3 3 3 3 2 2 2 2 2 2 2 3 3 2 2 2 2 2 2 3 2 1 1 2 2 2 2 2 1 0 1 1 1 2 2 2 3
3 3 3 4 3 3 4 4 4 3 2 1 2 2 1 2 2 3 2 3 2 2 2 2 1 2 3 2 0 1 1 2 1 2 2 2 2 2 2 2 3 3 3
2 2 3 3 3 3 3 4 4 3 2 2 2 2 2 2 2 2 2 2 2 2 2 1 1 2 2 3 2 1 1 0 1 2 3 3 3 2 2 3 2 3 3
1 2 3 4 3 3 3 3 4 4 3 3 3 2 1 1 1 2 2 2 2 2 1 1 1 2 2 2 2 2 2 2 2 2 3 3 4 3 3 2 2 2 3
Wind_Direction
210 197 168 154 148 140 134 128 124 121 118 116 116 116 114 114 117 112 109 109 109 108 104 100 96 92 90 89 86 85 81 79 77 74 71 70 72 77 81 78 79 82 83
171 172 165 155 150 142 137 133 128 123 120 120 118 118 118 116 114 115 111 106 105 108 106 103 99 95 91 89 86 83 81 79 76 71 69 66 68 76 83 85 81 85 83
133 151 154 149 147 142 137 134 131 126 122 120 120 120 120 120 118 114 112 109 103 101 102 100 98 95 92 89 87 82 79 79 76 73 67 62 63 73 80 86 84 79 80
123 132 145 144 144 144 138 136 133 128 127 125 123 122 122 121 121 117 112 108 106 102 100 103 101 97 94 93 89 84 79 77 75 75 64 53 53 68 78 77 76 76 76
103 115 136 142 143 146 143 137 136 133 130 129 128 126 125 122 119 118 113 109 106 103 101 101 104 100 96 93 87 81 76 77 75 73 62 48 38 54 72 69 68 72 73
97 113 128 137 141 144 145 141 138 136 135 132 127 128 126 124 121 117 117 113 107 102 99 97 98 100 96 92 86 79 77 74 75 70 58 42 30 49 73 71 68 65 61
113 113 128 129 136 143 147 145 141 138 140 136 131 129 127 123 125 120 113 112 110 104 98 96 92 94 95 92 87 84 80 77 79 70 46 27 16 40 67 73 62 58 51
122 111 129 132 130 135 145 147 144 141 137 134 132 129 126 121 119 116 116 113 110 108 103 96 92 87 87 89 90 87 82 81 79 62 30 14 11 29 52 61 55 50 47
108 101 104 122 128 130 134 147 146 146 139 134 130 125 120 119 115 112 112 109 107 104 101 96 89 83 78 79 82 81 80 78 75 60 38 15 13 39 46 47 42 44 56
112 107 107 111 113 116 122 137 136 134 131 133 129 123 115 110 108 105 100 97 96 96 99 94 87 85 78 75 73 77 78 71 62 52 33 22 30 42 52 47 48 54 51
143 122 119 120 116 113 121 126 130 126 123 115 118 120 112 102 95 94 92 90 85 83 85 90 88 84 77 68 65 66 73 65 56 43 24 20 34 44 55 57 51 47 43
193 188 139 126 135 122 114 105 114 121 111 105 106 119 112 104 96 95 90 89 85 77 70 70 80 78 73 61 56 57 58 61 54 36 23 27 41 48 62 61 49 39 34
202 194 169 141 136 129 117 106 107 120 115 104 107 121 116 104 95 87 80 76 74 72 63 57 57 63 66 62 53 49 53 52 47 40 28 34 44 47 55 55 48 35 28
212 204 188 160 149 152 138 125 121 125 122 120 130 126 122 107 92 86 75 69 67 66 64 57 53 57 61 63 64 56 52 51 41 41 42 46 51 50 51 53 48 40 42
217 206 201 178 181 166 144 143 127 137 141 138 135 134 135 128 122 103 83 70 66 69 69 63 55 54 55 51 55 61 52 49 50 47 55 58 61 58 55 53 49 46 39
216 201 196 190 192 164 152 150 145 141 145 139 135 143 138 136 132 123 102 77 60 64 72 72 73 65 59 63 56 50 51 50 61 64 65 65 60 57 54 50 47 42 35
211 197 192 194 183 160 147 148 151 154 143 144 142 140 134 133 133 127 118 98 68 72 76 72 63 66 60 66 59 50 53 53 66 74 69 68 65 56 55 50 45 43 38
195 190 195 183 171 154 143 134 137 138 135 137 135 129 127 129 131 126 121 116 89 81 80 89 87 76 60 55 45 30 44 59 68 75 78 70 66 59 53 49 45 42 35
186 184 185 170 155 144 128 117 118 113 121 127 127 120 126 127 130 123 119 110 101 87 76 104 84 101 95 66 53 43 29 45 58 72 75 71 66 64 57 46 42 38 27
170 166 165 140 132 128 114 105 97 93 86 98 115 122 131 130 128 119 111 102 101 95 76 88 102 77 108 108 81 50 28 14 49 67 81 69 64 63 57 48 38 24 16
146 151 151 136 129 129 127 134 135 138 123 93 92 120 126 131 132 125 118 109 108 112 108 108 118 88 63 76 76 41 16 26 34 56 75 73 55 44 47 41 36 25 6
166 162 152 150 138 140 137 137 136 135 127 116 95 74 102 126 132 127 128 126 120 121 111 107 116 113 44 47 95 89 10 348 358 349 16 100 38 30 25 9 8 13 1
174 175 168 161 142 140 129 114 96 83 72 73 74 64 54 100 114 126 135 136 125 129 143 146 151 153 152 36 59 129 147 233 306 319 299 276 289 324 316 331 328 328 329
194 176 157 150 140 135 131 137 139 137 146 178 130 113 67 80 101 113 125 132 129 127 142 163 162 162 157 177 155 66 152 165 178 299 304 292 286 279 277 298 298 296 307
164 147 145 136 136 135 140 149 141 130 129 120 104 100 76 59 82 104 111 117 119 120 127 133 137 152 167 177 178 172 145 126 174 196 268 290 292 258 251 252 259 279 295
105 126 145 145 150 148 148 147 146 151 148 136 124 120 86 58 69 84 99 104 109 115 131 154 156 143 154 166 173 178 177 182 195 194 237 268 280 276 265 241 232 259 283
Height
1515 1517 1519 1520 1522 1523 1524 1525 1526 1527 1528 1529 1530 1531 1531 1532 1533 1534 1535 1536 1536 1537 1538 1538 1539 1540 1540 1540 1541 1541 1542 1542 1543 1543 1543 1544 1544 1545 1545 1545 1545 1545 1546
1514 1516 1518 1520 1521 1522 1524 1525 1526 1527 1528 1529 1530 1530 1531 1532 1533 1534 1534 1535 1536 1537 1537 1538 1539 1539 1540 1540 1541 1541 1542 1542 1543 1543 1544 1544 1545 1545 1545 1546 1546 1546 1546
1514 1516 1517 1519 1521 1522 1523 1525 1526 1527 1528 1528 1529 1530 1531 1531 1532 1533 1534 1535 1536 1536 1537 1538 1538 1539 1539 1540 1540 1541 1541 1542 1542 1543 1543 1544 1545 1545 1545 1546 1546 1546 1546
1513 1515 1517 1519 1520 1521 1523 1524 1525 1526 1527 1528 1528 1529 1530 1531 1532 1533 1533 1534 1535 1536 1537 1537 1538 1539 1539 1540 1540 1541 1541 1542 1542 1543 1543 1544 1544 1545 1545 1545 1546 1546 1546
1513 1515 1516 1518 1519 1521 1522 1523 1524 1525 1526 1527 1528 1529 1530 1530 1531 1532 1533 1534 1535 1535 1536 1537 1538 1538 1539 1539 1540 1540 1541 1541 1542 1542 1543 1543 1544 1544 1545 1545 1545 1546 1546
1513 1514 1516 1517 1519 1520 1521 1522 1523 1524 1525 1526 1527 1528 1529 1530 1530 1531 1532 1533 1534 1535 1536 1536 1537 1538 1538 1539 1539 1540 1540 1541 1541 1542 1542 1543 1543 1544 1544 1544 1545 1545 1545
1512 1514 1515 1516 1518 1519 1520 1521 1522 1523 1524 1525 1526 1527 1528 1529 1530 1531 1532 1533 1533 1534 1535 1536 1536 1537 1538 1538 1539 1539 1540 1540 1541 1541 1542 1542 1542 1543 1543 1544 1544 1544 1544
1512 1513 1514 1515 1516 1518 1519 1520 1521 1522 1523 1524 1525 1526 1527 1528 1529 1530 1531 1532 1533 1534 1534 1535 1536 1536 1537 1538 1538 1539 1539 1539 1540 1540 1541 1541 1542 1542 1542 1543 1543 1543 1543
1511 1511 1512 1514 1515 1516 1517 1518 1519 1520 1521 1523 1524 1525 1526 1527 1528 1529 1530 1531 1532 1533 1533 1534 1535 1536 1536 1537 1537 1538 1538 1539 1539 1540 1540 1541 1541 1541 1541 1542 1542 1542 1542
1509 1510 1511 1512 1513 1514 1515 1517 1518 1519 1520 1522 1523 1524 1525 1526 1527 1528 1529 1530 1531 1532 1532 1533 1534 1535 1535 1536 1537 1537 1538 1538 1538 1539 1539 1540 1540 1540 1540 1540 1540 1540 1540
1506 1508 1509 1510 1511 1512 1513 1515 1516 1517 1519 1520 1522 1523 1524 1525 1526 1527 1528 1529 1530 1531 1531 1532 1533 1534 1534 1535 1535 1536 1537 1537 1537 1538 1538 1539 1539 1539 1539 1539 1539 1539 1539
1503 1505 1506 1508 1509 1510 1511 1512 1514 1515 1517 1518 1520 1521 1522 1524 1525 1526 1527 1528 1529 1529 1530 1531 1532 1532 1533 1534 1534 1535 1535 1536 1536 1537 1537 1537 1538 1538 1537 1537 1537 1537 1537
1501 1502 1504 1506 1507 1508 1509 1510 1512 1513 1515 1516 1518 1519 1521 1522 1523 1524 1525 1526 1527 1528 1529 1529 1530 1531 1532 1532 1533 1533 1533 1534 1534 1535 1535 1536 1536 1536 1536 1536 1535 1535 1535
1499 1500 1502 1503 1505 1506 1507 1508 1510 1511 1513 1514 1516 1517 1519 1520 1521 1523 1524 1525 1526 1527 1527 1528 1528 1529 1530 1530 1531 1531 1532 1532 1533 1533 1534 1534 1534 1534 1534 1534 1534 1533 1533
1497 1498 1500 1501 1502 1504 1505 1506 1508 1509 1511 1513 1514 1515 1517 1518 1520 1521 1522 1523 1524 1525 1526 1526 1527 1527 1528 1528 1529 1529 1530 1530 1531 1531 1531 1532 1532 1532 1532 1532 1532 1531 1531
1495 1496 1498 1499 1501 1502 1503 1504 1506 1508 1509 1511 1513 1514 1515 1517 1518 1519 1520 1521 1522 1523 1524 1524 1525 1525 1526 1526 1527 1527 1528 1528 1529 1529 1529 1530 1530 1530 1530 1530 1530 1529 1529
1493 1494 1496 1497 1498 1499 1501 1503 1504 1506 1507 1509 1511 1512 1513 1515 1516 1517 1518 1519 1520 1521 1522 1522 1523 1523 1523 1524 1525 1525 1526 1526 1527 1527 1527 1528 1528 1528 1528 1528 1527 1527 1526
1491 1492 1494 1495 1496 1497 1498 1500 1502 1504 1505 1506 1508 1510 1511 1513 1514 1515 1516 1517 1518 1519 1519 1520 1520 1521 1521 1521 1522 1523 1524 1524 1525 1525 1525 1525 1526 1526 1526 1525 1525 1525 1524
1489 1490 1491 1492 1493 1495 1496 1498 1500 1502 1503 1504 1505 1507 1509 1510 1512 1513 1514 1515 1516 1516 1517 1518 1518 1519 1519 1519 1520 1520 1521 1522 1522 1523 1523 1523 1523 1523 1523 1523 1523 1522 1522
1487 1488 1489 1490 1492 1493 1494 1496 1498 1500 1501 1501 1503 1505 1506 1508 1510 1511 1511 1512 1513 1514 1514 1515 1516 1516 1516 1517 1517 1518 1518 1519 1520 1520 1521 1521 1521 1521 1521 1520 1520 1520 1519
1484 1485 1487 1488 1490 1491 1492 1494 1496 1497 1499 1500 1501 1502 1504 1506 1507 1508 1509 1510 1511 1511 1512 1513 1513 1513 1514 1514 1515 1515 1515 1516 1517 1518 1518 1518 1518 1518 1518 1518 1517 1517 1516
1482 1483 1485 1486 1488 1489 1491 1493 1494 1496 1497 1498 1499 1499 1502 1503 1504 1506 1507 1508 1508 1509 1509 1510 1511 1510 1511 1512 1513 1513 1513 1515 1514 1515 1515 1515 1516 1516 1515 1515 1514 1514 1513
1480 1482 1483 1485 1487 1489 1490 1492 1493 1494 1495 1496 1496 1498 1499 1501 1502 1503 1504 1505 1506 1506 1507 1508 1508 1509 1508 1509 1510 1511 1512 1511 1512 1512 1512 1512 1513 1512 1512 1512 1511 1510 1510
1479 1481 1483 1484 1486 1488 1489 1490 1491 1491 1492 1494 1495 1496 1498 1499 1500 1501 1502 1503 1503 1504 1504 1505 1506 1506 1506 1507 1508 1508 1509 1509 1509 1509 1509 1509 1509 1509 1508 1508 1507 1507 1506
1479 1480 1481 1483 1484 1486 1488 1489 1489 1490 1491 1492 1493 1495 1496 1497 1497 1498 1499 1500 1500 1501 1502 1503 1503 1503 1503 1504 1504 1505 1506 1506 1506 1506 1504 1504 1505 1504 1504 1504 1504 1503 1502
1477 1478 1480 1481 1482 1484 1485 1487 1488 1489 1489 1490 1491 1492 1493 1494 1495 1495 1496 1497 1497 1498 1499 1500 1500 1501 1501 1501 1501 1502 1502 1502 1502 1502 1501 1500 1499 1499 1500 1500 1499 1499 1498